Time,TemperatureF,DewpointF,PressureIn,WindDirection,WindDirectionDegrees,WindSpeedMPH,WindSpeedGustMPH,Humidity,HourlyPrecipIn,Conditions,Clouds,dailyrainin,SolarRadiationWatts/m^2,SoftwareType,DateUTC
2013-12-17 00:02:00,59.8,44.1,30.07,West,278,1.2,1.2,56,0.00,CLR,,0.00,0.0,WeatherDisplay:10.37,2013-12-17 08:02:00,
2013-12-17 00:07:00,59.7,44.0,30.07,West,278,0.0,0.0,56,0.00,CLR,,0.00,0.0,WeatherDisplay:10.37,2013-12-17 08:07:00,
2013-12-17 00:12:00,59.5,43.8,30.07,West,278,3.5,3.5,56,0.00,CLR,,0.00,0.0,WeatherDisplay:10.37,2013-12-17 08:12:00,
2013-12-17 00:17:00,59.5,43.8,30.07,West,278,1.2,1.2,56,0.00,CLR,,0.00,0.0,WeatherDisplay:10.37,2013-12-17 08:17:00,
2013-12-17 00:22:00,59.4,44.2,30.07,West,278,1.2,1.2,57,0.00,CLR,,0.00,0.0,WeatherDisplay:10.37,2013-12-17 08:22:00,
2013-12-17 00:27:00,59.2,44.0,30.07,West,278,1.2,1.2,57,0.00,CLR,,0.00,0.0,WeatherDisplay:10.37,2013-12-17 08:27:00,
2013-12-17 00:32:00,59.1,43.9,30.07,West,278,0.0,0.0,57,0.00,CLR,,0.00,0.0,WeatherDisplay:10.37,2013-12-17 08:32:00,
2013-12-17 00:37:00,59.0,43.8,30.07,West,278,0.0,0.0,57,0.00,CLR,,0.00,0.0,WeatherDisplay:10.37,2013-12-17 08:37:00,
2013-12-17 00:42:00,58.9,43.7,30.06,West,278,2.3,2.3,57,0.00,CLR,,0.00,0.0,WeatherDisplay:10.37,2013-12-17 08:42:00,
2013-12-17 00:47:00,59.0,43.8,30.06,West,278,2.3,2.3,57,0.00,CLR,,0.00,0.0,WeatherDisplay:10.37,2013-12-17 08:47:00,
2013-12-17 00:52:00,59.1,43.4,30.07,West,278,1.2,0.0,56,0.00,CLR,,0.00,0.0,WeatherDisplay:10.37,2013-12-17 08:52:00,
2013-12-17 00:57:00,59.4,43.2,30.07,West,278,4.0,4.0,55,0.00,CLR,,0.00,0.0,WeatherDisplay:10.37,2013-12-17 08:57:00,
2013-12-17 01:02:00,59.5,42.8,30.08,West,278,3.0,3.0,54,0.00,CLR,,0.00,0.0,WeatherDisplay:10.37,2013-12-17 09:02:00,
2013-12-17 01:07:00,59.2,43.5,30.08,West,278,3.0,3.0,56,0.00,CLR,,0.00,0.0,WeatherDisplay:10.37,2013-12-17 09:07:00,
2013-12-17 01:12:00,58.9,43.2,30.08,West,278,1.2,0.0,56,0.00,CLR,,0.00,0.0,WeatherDisplay:10.37,2013-12-17 09:12:00,
2013-12-17 01:17:00,58.7,43.5,30.08,West,278,1.2,1.2,57,0.00,CLR,,0.00,0.0,WeatherDisplay:10.37,2013-12-17 09:17:00,
2013-12-17 01:22:00,58.5,43.8,30.07,West,278,1.2,1.2,58,0.00,CLR,,0.00,0.0,WeatherDisplay:10.37,2013-12-17 09:22:00,
2013-12-17 01:27:00,58.0,43.3,30.07,West,278,1.2,1.2,58,0.00,CLR,,0.00,0.0,WeatherDisplay:10.37,2013-12-17 09:27:00,
2013-12-17 01:32:00,57.7,43.5,30.08,West,278,0.0,0.0,59,0.00,CLR,,0.00,0.0,WeatherDisplay:10.37,2013-12-17 09:32:00,
2013-12-17 01:37:00,57.5,43.7,30.07,West,278,1.2,0.0,60,0.00,CLR,,0.00,0.0,WeatherDisplay:10.37,2013-12-17 09:37:00,
2013-12-17 01:42:00,57.5,43.7,30.08,West,278,0.0,0.0,60,0.00,CLR,,0.00,0.0,WeatherDisplay:10.37,2013-12-17 09:42:00,
2013-12-17 01:47:00,57.2,43.4,30.08,West,278,0.0,0.0,60,0.00,CLR,,0.00,0.0,WeatherDisplay:10.37,2013-12-17 09:47:00,
2013-12-17 01:52:00,56.9,43.6,30.07,West,278,2.3,2.3,61,0.00,CLR,,0.00,0.0,WeatherDisplay:10.37,2013-12-17 09:52:00,
2013-12-17 01:57:00,56.5,43.6,30.07,West,278,0.0,0.0,62,0.00,CLR,,0.00,0.0,WeatherDisplay:10.37,2013-12-17 09:57:00,
2013-12-17 02:02:00,56.3,43.4,30.07,West,278,1.2,0.0,62,0.00,CLR,,0.00,0.0,WeatherDisplay:10.37,2013-12-17 10:02:00,
2013-12-17 02:07:00,56.0,43.6,30.07,West,278,0.0,0.1,63,0.00,CLR,,0.00,0.0,WeatherDisplay:10.37,2013-12-17 10:07:00,
2013-12-17 02:12:00,56.0,43.6,30.07,West,278,1.2,1.2,63,0.00,CLR,,0.00,0.0,WeatherDisplay:10.37,2013-12-17 10:12:00,
2013-12-17 02:17:00,55.9,43.5,30.07,West,278,0.0,0.0,63,0.00,CLR,,0.00,0.0,WeatherDisplay:10.37,2013-12-17 10:17:00,
2013-12-17 02:22:00,55.8,43.4,30.07,West,278,0.0,0.0,63,0.00,CLR,,0.00,0.0,WeatherDisplay:10.37,2013-12-17 10:22:00,
2013-12-17 02:27:00,55.7,43.3,30.07,West,278,1.0,0.0,63,0.00,CLR,,0.00,0.0,WeatherDisplay:10.37,2013-12-17 10:27:00,
2013-12-17 02:32:00,55.6,43.2,30.07,West,278,0.0,0.0,63,0.00,CLR,,0.00,0.0,WeatherDisplay:10.37,2013-12-17 10:32:00,
2013-12-17 02:37:00,55.5,43.5,30.07,West,278,0.0,0.0,64,0.00,CLR,,0.00,0.0,WeatherDisplay:10.37,2013-12-17 10:37:00,
2013-12-17 02:42:00,55.3,43.3,30.06,West,278,2.3,2.3,64,0.00,CLR,,0.00,0.0,WeatherDisplay:10.37,2013-12-17 10:42:00,
2013-12-17 02:47:00,55.2,43.2,30.06,West,278,0.0,0.0,64,0.00,CLR,,0.00,0.0,WeatherDisplay:10.37,2013-12-17 10:47:00,
2013-12-17 02:52:00,55.2,43.2,30.06,West,278,1.2,1.2,64,0.00,CLR,,0.00,0.0,WeatherDisplay:10.37,2013-12-17 10:52:00,
2013-12-17 02:57:00,55.4,43.4,30.06,West,278,0.0,0.0,64,0.00,CLR,,0.00,0.0,WeatherDisplay:10.37,2013-12-17 10:57:00,
2013-12-17 03:02:00,55.5,43.1,30.06,West,278,0.0,0.0,63,0.00,CLR,,0.00,0.0,WeatherDisplay:10.37,2013-12-17 11:02:00,
2013-12-17 03:07:00,55.4,43.4,30.05,West,278,2.0,2.0,64,0.00,CLR,,0.00,0.0,WeatherDisplay:10.37,2013-12-17 11:07:00,
2013-12-17 03:12:00,55.6,43.2,30.05,West,278,0.0,0.0,63,0.00,CLR,,0.00,0.0,WeatherDisplay:10.37,2013-12-17 11:12:00,
2013-12-17 03:17:00,55.6,43.2,30.05,West,278,1.0,0.0,63,0.00,CLR,,0.00,0.0,WeatherDisplay:10.37,2013-12-17 11:17:00,
2013-12-17 03:22:00,55.6,43.2,30.05,West,278,1.2,1.2,63,0.00,CLR,,0.00,0.0,WeatherDisplay:10.37,2013-12-17 11:22:00,
2013-12-17 03:27:00,55.8,43.0,30.05,West,278,0.0,0.0,62,0.00,CLR,,0.00,0.0,WeatherDisplay:10.37,2013-12-17 11:27:00,
2013-12-17 03:32:00,55.8,43.4,30.05,West,278,1.2,1.2,63,0.00,CLR,,0.00,0.0,WeatherDisplay:10.37,2013-12-17 11:32:00,
2013-12-17 03:37:00,55.8,43.4,30.05,West,278,0.0,0.0,63,0.00,CLR,,0.00,0.0,WeatherDisplay:10.37,2013-12-17 11:37:00,
2013-12-17 03:42:00,55.9,43.5,30.05,West,278,0.0,0.0,63,0.00,CLR,,0.00,0.0,WeatherDisplay:10.37,2013-12-17 11:42:00,
2013-12-17 03:47:00,56.0,43.6,30.06,West,278,2.3,2.3,63,0.00,CLR,,0.00,0.0,WeatherDisplay:10.37,2013-12-17 11:47:00,
2013-12-17 03:52:00,56.4,43.1,30.06,West,278,3.5,3.5,61,0.00,CLR,,0.00,0.0,WeatherDisplay:10.37,2013-12-17 11:52:00,
2013-12-17 03:57:00,56.4,42.7,30.05,West,278,3.5,3.5,60,0.00,CLR,,0.00,0.0,WeatherDisplay:10.37,2013-12-17 11:57:00,
2013-12-17 04:02:00,56.3,42.1,30.05,West,278,1.2,1.2,59,0.00,CLR,,0.00,0.0,WeatherDisplay:10.37,2013-12-17 12:02:00,
2013-12-17 04:07:00,56.3,41.7,30.05,West,278,3.5,3.5,58,0.00,CLR,,0.00,0.0,WeatherDisplay:10.37,2013-12-17 12:07:00,
2013-12-17 04:12:00,56.2,41.2,30.05,West,278,1.2,0.0,57,0.00,CLR,,0.00,0.0,WeatherDisplay:10.37,2013-12-17 12:12:00,
2013-12-17 04:17:00,55.9,41.3,30.05,West,278,0.0,0.0,58,0.00,CLR,,0.00,0.0,WeatherDisplay:10.37,2013-12-17 12:17:00,
2013-12-17 04:22:00,55.7,40.7,30.05,West,278,2.3,2.3,57,0.00,CLR,,0.00,0.0,WeatherDisplay:10.37,2013-12-17 12:22:00,
2013-12-17 04:27:00,55.9,40.4,30.05,West,278,0.0,0.0,56,0.00,CLR,,0.00,0.0,WeatherDisplay:10.37,2013-12-17 12:27:00,
2013-12-17 04:32:00,55.8,40.3,30.05,West,278,0.0,0.0,56,0.00,CLR,,0.00,0.0,WeatherDisplay:10.37,2013-12-17 12:32:00,
2013-12-17 04:37:00,55.6,40.1,30.05,West,278,1.2,1.2,56,0.00,CLR,,0.00,0.0,WeatherDisplay:10.37,2013-12-17 12:37:00,
2013-12-17 04:42:00,55.4,40.0,30.05,West,278,0.0,0.0,56,0.00,CLR,,0.00,0.0,WeatherDisplay:10.37,2013-12-17 12:42:00,
2013-12-17 04:47:00,55.2,40.2,30.05,West,278,3.5,3.5,57,0.00,CLR,,0.00,0.0,WeatherDisplay:10.37,2013-12-17 12:47:00,
2013-12-17 04:52:00,54.9,40.4,30.05,West,278,1.2,1.2,58,0.00,CLR,,0.00,0.0,WeatherDisplay:10.37,2013-12-17 12:52:00,
2013-12-17 04:57:00,54.7,40.6,30.05,West,278,1.2,0.0,59,0.00,CLR,,0.00,0.0,WeatherDisplay:10.37,2013-12-17 12:57:00,
2013-12-17 05:02:00,54.6,40.6,30.05,West,278,1.2,0.0,59,0.00,CLR,,0.00,0.0,WeatherDisplay:10.37,2013-12-17 13:02:00,
2013-12-17 05:07:00,54.4,40.8,30.05,West,278,0.0,0.0,60,0.00,CLR,,0.00,0.0,WeatherDisplay:10.37,2013-12-17 13:07:00,
2013-12-17 05:12:00,54.2,40.6,30.05,West,278,1.2,0.0,60,0.00,CLR,,0.00,0.0,WeatherDisplay:10.37,2013-12-17 13:12:00,
2013-12-17 05:17:00,54.0,40.4,30.05,West,278,0.0,0.0,60,0.00,CLR,,0.00,0.0,WeatherDisplay:10.37,2013-12-17 13:17:00,
2013-12-17 05:22:00,53.8,40.7,30.05,West,278,0.0,0.0,61,0.00,CLR,,0.00,0.0,WeatherDisplay:10.37,2013-12-17 13:22:00,
2013-12-17 05:27:00,53.7,40.6,30.06,West,278,0.0,0.0,61,0.00,CLR,,0.00,0.0,WeatherDisplay:10.37,2013-12-17 13:27:00,
2013-12-17 05:32:00,53.8,40.7,30.06,West,278,2.3,0.0,61,0.00,CLR,,0.00,0.0,WeatherDisplay:10.37,2013-12-17 13:32:00,
2013-12-17 05:37:00,53.9,40.3,30.06,West,278,1.2,1.2,60,0.00,CLR,,0.00,0.0,WeatherDisplay:10.37,2013-12-17 13:37:00,
2013-12-17 05:42:00,53.7,40.6,30.06,West,278,1.2,0.0,61,0.00,CLR,,0.00,0.0,WeatherDisplay:10.37,2013-12-17 13:42:00,
2013-12-17 05:47:00,53.5,40.8,30.06,West,278,1.2,0.0,62,0.00,CLR,,0.00,0.0,WeatherDisplay:10.37,2013-12-17 13:47:00,
2013-12-17 05:52:00,53.3,40.6,30.06,West,278,0.0,0.0,62,0.00,CLR,,0.00,0.0,WeatherDisplay:10.37,2013-12-17 13:52:00,
2013-12-17 05:57:00,53.0,40.7,30.06,West,278,1.2,0.0,63,0.00,CLR,,0.00,0.0,WeatherDisplay:10.37,2013-12-17 13:57:00,
2013-12-17 06:02:00,52.8,41.0,30.06,West,278,0.0,0.0,64,0.00,CLR,,0.00,0.0,WeatherDisplay:10.37,2013-12-17 14:02:00,
2013-12-17 06:08:00,52.6,40.8,30.06,West,278,1.2,1.2,64,0.00,CLR,,0.00,0.0,WeatherDisplay:10.37,2013-12-17 14:08:00,
2013-12-17 06:13:00,52.4,41.0,30.07,West,278,3.5,3.5,65,0.00,CLR,,0.00,0.0,WeatherDisplay:10.37,2013-12-17 14:13:00,
2013-12-17 06:18:00,52.3,41.3,30.07,West,278,1.2,0.0,66,0.00,CLR,,0.00,0.0,WeatherDisplay:10.37,2013-12-17 14:18:00,
2013-12-17 06:23:00,52.2,41.6,30.07,West,278,3.5,3.5,67,0.00,CLR,,0.00,0.0,WeatherDisplay:10.37,2013-12-17 14:23:00,
2013-12-17 06:28:00,52.3,41.3,30.06,West,278,1.2,0.0,66,0.00,CLR,,0.00,0.0,WeatherDisplay:10.37,2013-12-17 14:28:00,
2013-12-17 06:32:00,52.3,41.3,30.07,West,278,0.0,0.0,66,0.00,CLR,,0.00,0.0,WeatherDisplay:10.37,2013-12-17 14:32:00,
2013-12-17 06:37:00,52.2,41.2,30.07,West,278,0.0,0.0,66,0.00,CLR,,0.00,0.0,WeatherDisplay:10.37,2013-12-17 14:37:00,
2013-12-17 06:42:00,52.2,41.6,30.07,West,278,1.2,0.0,67,0.00,CLR,,0.00,0.0,WeatherDisplay:10.37,2013-12-17 14:42:00,
2013-12-17 06:47:00,52.1,41.5,30.08,West,278,0.0,0.0,67,0.00,CLR,,0.00,0.0,WeatherDisplay:10.37,2013-12-17 14:47:00,
2013-12-17 06:52:00,51.9,41.3,30.08,West,278,0.0,0.0,67,0.00,CLR,,0.00,0.0,WeatherDisplay:10.37,2013-12-17 14:52:00,
2013-12-17 06:57:00,51.8,41.2,30.08,West,278,0.0,0.0,67,0.00,SCT,,0.00,5.0,WeatherDisplay:10.37,2013-12-17 14:57:00,
2013-12-17 07:02:00,51.8,41.2,30.08,West,278,2.3,2.3,67,0.00,SCT,,0.00,9.0,WeatherDisplay:10.37,2013-12-17 15:02:00,
2013-12-17 07:07:00,51.8,41.2,30.08,West,278,1.2,0.0,67,0.00,SCT,,0.00,16.0,WeatherDisplay:10.37,2013-12-17 15:07:00,
2013-12-17 07:12:00,51.9,41.3,30.08,West,278,1.2,0.0,67,0.00,BKN,,0.00,18.0,WeatherDisplay:10.37,2013-12-17 15:12:00,
2013-12-17 07:17:00,51.9,41.7,30.08,West,278,1.2,1.2,68,0.00,SCT,,0.00,25.0,WeatherDisplay:10.37,2013-12-17 15:17:00,
2013-12-17 07:22:00,52.1,41.9,30.08,West,278,1.2,1.2,68,0.00,SCT,,0.00,37.0,WeatherDisplay:10.37,2013-12-17 15:22:00,
2013-12-17 07:27:00,52.4,42.1,30.08,West,278,2.3,2.3,68,0.00,SCT,,0.00,46.0,WeatherDisplay:10.37,2013-12-17 15:27:00,
2013-12-17 07:32:00,52.9,42.6,30.09,West,278,0.0,0.0,68,0.00,SCT,,0.00,42.0,WeatherDisplay:10.37,2013-12-17 15:32:00,
2013-12-17 07:37:00,53.3,43.0,30.09,West,278,0.0,0.0,68,0.00,BKN,,0.00,46.0,WeatherDisplay:10.37,2013-12-17 15:37:00,
2013-12-17 07:42:00,53.6,42.9,30.09,West,278,0.0,0.0,67,0.00,BKN,,0.00,53.0,WeatherDisplay:10.37,2013-12-17 15:42:00,
2013-12-17 07:47:00,54.2,43.5,30.08,West,278,0.0,0.0,67,0.00,FEW,,0.00,113.0,WeatherDisplay:10.37,2013-12-17 15:47:00,
2013-12-17 07:52:00,54.8,43.7,30.08,West,278,0.0,0.0,66,0.00,CLR,,0.00,137.0,WeatherDisplay:10.37,2013-12-17 15:52:00,
2013-12-17 07:57:00,55.8,43.8,30.09,West,278,2.3,2.3,64,0.00,FEW,,0.00,104.0,WeatherDisplay:10.37,2013-12-17 15:57:00,
2013-12-17 08:02:00,56.7,43.8,30.09,West,278,2.3,2.3,62,0.00,CLR,,0.00,179.0,WeatherDisplay:10.37,2013-12-17 16:02:00,
2013-12-17 08:07:00,58.0,43.7,30.09,West,278,2.3,2.3,59,0.00,CLR,,0.00,171.0,WeatherDisplay:10.37,2013-12-17 16:07:00,
2013-12-17 08:12:00,58.8,43.1,30.09,West,278,1.2,0.0,56,0.00,SCT,,0.00,100.0,WeatherDisplay:10.37,2013-12-17 16:12:00,
2013-12-17 08:17:00,59.2,43.5,30.09,West,278,1.0,1.0,56,0.00,SCT,,0.00,91.0,WeatherDisplay:10.37,2013-12-17 16:17:00,
2013-12-17 08:22:00,59.5,42.8,30.09,West,278,0.0,0.0,54,0.00,BKN,,0.00,86.0,WeatherDisplay:10.37,2013-12-17 16:22:00,
2013-12-17 08:27:00,59.7,43.0,30.09,West,278,1.2,0.0,54,0.00,BKN,,0.00,81.0,WeatherDisplay:10.37,2013-12-17 16:27:00,
2013-12-17 08:32:00,60.0,43.3,30.09,West,278,1.2,1.2,54,0.00,SCT,,0.00,167.0,WeatherDisplay:10.37,2013-12-17 16:32:00,
2013-12-17 08:37:00,60.3,43.6,30.09,West,278,1.2,1.2,54,0.00,CLR,,0.00,246.0,WeatherDisplay:10.37,2013-12-17 16:37:00,
2013-12-17 08:42:00,61.0,44.2,30.10,West,278,0.0,0.0,54,0.00,CLR,,0.00,250.0,WeatherDisplay:10.37,2013-12-17 16:42:00,
2013-12-17 08:47:00,62.0,44.7,30.10,West,278,0.0,0.0,53,0.00,BKN,,0.00,81.0,WeatherDisplay:10.37,2013-12-17 16:47:00,
2013-12-17 08:52:00,62.6,45.2,30.09,West,278,1.0,1.0,53,0.00,BKN,,0.00,86.0,WeatherDisplay:10.37,2013-12-17 16:52:00,
2013-12-17 08:57:00,62.9,45.5,30.10,West,278,1.2,0.0,53,0.00,CLR,,0.00,315.0,WeatherDisplay:10.37,2013-12-17 16:57:00,
2013-12-17 09:02:00,63.3,46.4,30.10,West,278,0.0,0.0,54,0.00,CLR,,0.00,341.0,WeatherDisplay:10.37,2013-12-17 17:02:00,
2013-12-17 09:07:00,64.2,47.2,30.10,West,278,1.2,1.2,54,0.00,CLR,,0.00,160.0,WeatherDisplay:10.37,2013-12-17 17:07:00,
2013-12-17 09:12:00,64.9,47.9,30.10,West,278,2.3,2.3,54,0.00,FEW,,0.00,323.0,WeatherDisplay:10.37,2013-12-17 17:12:00,
2013-12-17 09:17:00,65.2,48.1,30.11,West,278,3.5,3.5,54,0.00,CLR,,0.00,285.0,WeatherDisplay:10.37,2013-12-17 17:17:00,
2013-12-17 09:22:00,65.3,48.7,30.11,West,277,3.5,3.5,55,0.00,CLR,,0.00,376.0,WeatherDisplay:10.37,2013-12-17 17:22:00,
2013-12-17 09:27:00,65.2,48.6,30.11,West,277,3.5,3.5,55,0.00,FEW,,0.00,315.0,WeatherDisplay:10.37,2013-12-17 17:27:00,
2013-12-17 09:32:00,65.4,49.3,30.11,West,277,3.5,3.5,56,0.00,CLR,,0.00,299.0,WeatherDisplay:10.37,2013-12-17 17:32:00,
2013-12-17 09:37:00,65.6,49.0,30.11,West,277,5.0,5.0,55,0.00,SCT,,0.00,311.0,WeatherDisplay:10.37,2013-12-17 17:37:00,
2013-12-17 09:42:00,65.8,49.2,30.11,West,277,3.5,3.5,55,0.00,FEW,,0.00,241.0,WeatherDisplay:10.37,2013-12-17 17:42:00,
2013-12-17 09:47:00,66.2,50.0,30.11,West,277,3.5,3.5,56,0.00,SCT,,0.00,174.0,WeatherDisplay:10.37,2013-12-17 17:47:00,
2013-12-17 09:52:00,66.3,49.6,30.11,West,277,3.0,3.0,55,0.00,BKN,,0.00,172.0,WeatherDisplay:10.37,2013-12-17 17:52:00,
2013-12-17 09:57:00,66.2,49.6,30.11,West,277,3.5,3.5,55,0.00,BKN,,0.00,192.0,WeatherDisplay:10.37,2013-12-17 17:57:00,
2013-12-17 10:02:00,66.2,49.6,30.11,West,277,2.3,2.3,55,0.00,SCT,,0.00,279.0,WeatherDisplay:10.37,2013-12-17 18:02:00,
2013-12-17 10:07:00,66.3,49.6,30.11,West,277,3.5,3.5,55,0.00,FEW,,0.00,429.0,WeatherDisplay:10.37,2013-12-17 18:07:00,
2013-12-17 10:12:00,66.6,49.4,30.11,West,277,4.0,4.0,54,0.00,CLR,,0.00,445.0,WeatherDisplay:10.37,2013-12-17 18:12:00,
2013-12-17 10:17:00,67.2,49.5,30.11,West,273,5.0,5.0,53,0.00,CLR,,0.00,519.0,WeatherDisplay:10.37,2013-12-17 18:17:00,
2013-12-17 10:22:00,67.6,48.8,30.11,West,273,4.0,4.0,51,0.00,CLR,,0.00,526.0,WeatherDisplay:10.37,2013-12-17 18:22:00,
2013-12-17 10:27:00,68.2,48.8,30.11,West,272,3.0,3.0,50,0.00,CLR,,0.00,555.0,WeatherDisplay:10.37,2013-12-17 18:27:00,
2013-12-17 10:32:00,68.9,48.4,30.11,West,272,3.5,3.5,48,0.00,CLR,,0.00,533.0,WeatherDisplay:10.37,2013-12-17 18:32:00,
2013-12-17 10:38:00,69.5,47.8,30.11,West,271,5.0,5.0,46,0.00,CLR,,0.00,534.0,WeatherDisplay:10.37,2013-12-17 18:38:00,
2013-12-17 10:43:00,69.9,47.0,30.11,West,267,5.8,5.8,44,0.00,CLR,,0.00,545.0,WeatherDisplay:10.37,2013-12-17 18:43:00,
2013-12-17 10:48:00,70.3,47.9,30.11,West,266,3.5,3.5,45,0.00,CLR,,0.00,534.0,WeatherDisplay:10.37,2013-12-17 18:48:00,
2013-12-17 10:53:00,70.9,47.3,30.11,West,265,4.0,4.0,43,0.00,CLR,,0.00,557.0,WeatherDisplay:10.37,2013-12-17 18:53:00,
2013-12-17 10:58:00,71.2,47.6,30.11,West,265,2.3,2.3,43,0.00,CLR,,0.00,452.0,WeatherDisplay:10.37,2013-12-17 18:58:00,
2013-12-17 11:03:00,71.5,45.9,30.10,West,265,3.5,3.5,40,0.00,CLR,,0.00,534.0,WeatherDisplay:10.37,2013-12-17 19:03:00,
2013-12-17 11:08:00,71.8,46.2,30.10,West,264,3.5,3.5,40,0.00,CLR,,0.00,526.0,WeatherDisplay:10.37,2013-12-17 19:08:00,
2013-12-17 11:13:00,72.6,46.9,30.10,West,262,4.0,4.0,40,0.00,CLR,,0.00,540.0,WeatherDisplay:10.37,2013-12-17 19:13:00,
2013-12-17 11:18:00,73.0,45.2,30.09,West,260,4.0,4.0,37,0.00,CLR,,0.00,536.0,WeatherDisplay:10.37,2013-12-17 19:18:00,
2013-12-17 11:23:00,72.8,46.4,30.09,West,259,3.5,3.5,39,0.00,CLR,,0.00,527.0,WeatherDisplay:10.37,2013-12-17 19:23:00,
2013-12-17 11:28:00,73.0,45.9,30.09,West,259,2.3,2.3,38,0.00,CLR,,0.00,529.0,WeatherDisplay:10.37,2013-12-17 19:28:00,
2013-12-17 11:33:00,73.1,43.8,30.08,WSW,258,3.5,3.5,35,0.00,CLR,,0.00,506.0,WeatherDisplay:10.37,2013-12-17 19:33:00,
2013-12-17 11:38:00,73.3,43.2,30.08,WSW,258,3.5,3.5,34,0.00,CLR,,0.00,540.0,WeatherDisplay:10.37,2013-12-17 19:38:00,
2013-12-17 11:43:00,73.8,43.7,30.08,WSW,258,3.5,3.5,34,0.00,CLR,,0.00,561.0,WeatherDisplay:10.37,2013-12-17 19:43:00,
2013-12-17 11:48:00,74.3,43.3,30.07,WSW,258,2.3,2.3,33,0.00,FEW,,0.00,276.0,WeatherDisplay:10.37,2013-12-17 19:48:00,
2013-12-17 11:53:00,74.6,43.6,30.07,WSW,258,2.0,2.0,33,0.00,SCT,,0.00,186.0,WeatherDisplay:10.37,2013-12-17 19:53:00,
2013-12-17 11:58:00,74.7,44.5,30.07,WSW,258,2.3,2.3,34,0.00,BKN,,0.00,216.0,WeatherDisplay:10.37,2013-12-17 19:58:00,
2013-12-17 12:03:00,74.5,45.0,30.07,WSW,258,1.2,1.2,35,0.00,BKN,,0.00,244.0,WeatherDisplay:10.37,2013-12-17 20:03:00,
2013-12-17 12:08:00,74.4,45.0,30.07,WSW,258,2.3,2.3,35,0.00,SCT,,0.00,383.0,WeatherDisplay:10.37,2013-12-17 20:08:00,
2013-12-17 12:13:00,74.5,44.3,30.06,WSW,258,2.3,2.3,34,0.00,FEW,,0.00,452.0,WeatherDisplay:10.37,2013-12-17 20:13:00,
2013-12-17 12:18:00,74.9,44.6,30.06,WSW,257,4.0,4.0,34,0.00,CLR,,0.00,677.0,WeatherDisplay:10.37,2013-12-17 20:18:00,
2013-12-17 12:23:00,75.1,44.8,30.06,WSW,257,3.5,3.5,34,0.00,BKN,,0.00,174.0,WeatherDisplay:10.37,2013-12-17 20:23:00,
2013-12-17 12:28:00,74.8,43.8,30.05,WSW,257,2.3,2.3,33,0.00,BKN,,0.00,160.0,WeatherDisplay:10.37,2013-12-17 20:28:00,
2013-12-17 12:33:00,74.7,44.5,30.05,WSW,257,0.0,0.0,34,0.00,BKN,,0.00,229.0,WeatherDisplay:10.37,2013-12-17 20:33:00,
2013-12-17 12:38:00,74.9,43.8,30.05,WSW,257,3.5,3.5,33,0.00,BKN,,0.00,566.0,WeatherDisplay:10.37,2013-12-17 20:38:00,
2013-12-17 12:43:00,75.1,44.0,30.05,WSW,257,3.5,3.5,33,0.00,CLR,,0.00,429.0,WeatherDisplay:10.37,2013-12-17 20:43:00,
2013-12-17 12:48:00,75.3,44.2,30.04,WSW,257,3.5,3.5,33,0.00,CLR,,0.00,487.0,WeatherDisplay:10.37,2013-12-17 20:48:00,
2013-12-17 12:53:00,75.9,44.7,30.04,WSW,257,1.2,1.2,33,0.00,CLR,,0.00,473.0,WeatherDisplay:10.37,2013-12-17 20:53:00,
2013-12-17 12:58:00,76.2,44.2,30.03,WSW,257,3.5,3.5,32,0.00,SCT,,0.00,236.0,WeatherDisplay:10.37,2013-12-17 20:58:00,
2013-12-17 13:03:00,76.0,43.2,30.03,WSW,256,3.5,3.5,31,0.00,SCT,,0.00,311.0,WeatherDisplay:10.37,2013-12-17 21:03:00,
2013-12-17 13:08:00,76.1,44.9,30.03,WSW,255,4.0,4.0,33,0.00,CLR,,0.00,406.0,WeatherDisplay:10.37,2013-12-17 21:08:00,
2013-12-17 13:13:00,76.3,44.3,30.02,WSW,249,4.0,4.0,32,0.00,CLR,,0.00,494.0,WeatherDisplay:10.37,2013-12-17 21:13:00,
2013-12-17 13:18:00,76.6,43.7,30.02,SW,218,5.8,5.8,31,0.00,CLR,,0.00,489.0,WeatherDisplay:10.37,2013-12-17 21:18:00,
2013-12-17 13:23:00,76.6,42.8,30.02,SW,217,3.5,3.5,30,0.00,CLR,,0.00,443.0,WeatherDisplay:10.37,2013-12-17 21:23:00,
2013-12-17 13:28:00,76.9,44.0,30.02,SW,215,3.0,3.0,31,0.00,BKN,,0.00,192.0,WeatherDisplay:10.37,2013-12-17 21:28:00,
2013-12-17 13:33:00,76.8,45.5,30.02,SW,215,2.3,2.3,33,0.00,BKN,,0.00,135.0,WeatherDisplay:10.37,2013-12-17 21:33:00,
2013-12-17 13:38:00,76.5,45.2,30.02,SW,215,3.5,3.5,33,0.00,BKN,,0.00,127.0,WeatherDisplay:10.37,2013-12-17 21:38:00,
2013-12-17 13:43:00,76.2,45.8,30.02,SW,215,4.6,4.6,34,0.00,BKN,,0.00,148.0,WeatherDisplay:10.37,2013-12-17 21:43:00,
2013-12-17 13:48:00,76.0,45.6,30.02,SW,215,2.3,2.3,34,0.00,BKN,,0.00,153.0,WeatherDisplay:10.37,2013-12-17 21:48:00,
2013-12-17 13:53:00,75.9,45.5,30.02,SW,215,3.5,3.5,34,0.00,BKN,,0.00,172.0,WeatherDisplay:10.37,2013-12-17 21:53:00,
2013-12-17 13:58:00,75.8,44.6,30.02,SW,214,3.5,3.5,33,0.00,SCT,,0.00,257.0,WeatherDisplay:10.37,2013-12-17 21:58:00,
2013-12-17 14:03:00,75.9,44.7,30.02,SW,214,3.5,3.5,33,0.00,FEW,,0.00,269.0,WeatherDisplay:10.37,2013-12-17 22:03:00,
2013-12-17 14:08:00,76.0,43.2,30.01,SW,214,2.3,2.3,31,0.00,CLR,,0.00,262.0,WeatherDisplay:10.37,2013-12-17 22:08:00,
2013-12-17 14:13:00,76.4,43.5,30.02,SW,214,4.0,4.0,31,0.00,SCT,,0.00,172.0,WeatherDisplay:10.37,2013-12-17 22:13:00,
2013-12-17 14:16:00,76.4,42.7,30.01,SW,214,4.0,4.0,30,0.00,SCT,,0.00,236.0,WeatherDisplay:10.37,2013-12-17 22:16:00,
2013-12-17 14:21:00,76.3,42.6,30.01,SW,214,4.0,4.0,30,0.00,FEW,,0.00,251.0,WeatherDisplay:10.37,2013-12-17 22:21:00,
2013-12-17 14:26:00,76.3,42.6,30.01,SW,214,3.5,3.5,30,0.00,CLR,,0.00,267.0,WeatherDisplay:10.37,2013-12-17 22:26:00,
2013-12-17 14:31:00,76.4,43.5,30.02,SW,214,3.5,3.5,31,0.00,FEW,,0.00,223.0,WeatherDisplay:10.37,2013-12-17 22:31:00,
2013-12-17 14:36:00,76.4,42.7,30.01,SSW,213,4.6,4.6,30,0.00,FEW,,0.00,216.0,WeatherDisplay:10.37,2013-12-17 22:36:00,
2013-12-17 14:41:00,76.3,42.6,30.01,SSW,213,3.5,3.5,30,0.00,SCT,,0.00,197.0,WeatherDisplay:10.37,2013-12-17 22:41:00,
2013-12-17 14:46:00,76.3,42.6,30.01,SSW,211,4.6,4.6,30,0.00,SCT,,0.00,202.0,WeatherDisplay:10.37,2013-12-17 22:46:00,
2013-12-17 14:51:00,76.4,41.8,30.01,SSW,210,3.5,3.5,29,0.00,SCT,,0.00,139.0,WeatherDisplay:10.37,2013-12-17 22:51:00,
2013-12-17 14:56:00,76.4,41.8,30.01,SSW,210,4.6,4.6,29,0.00,SCT,,0.00,158.0,WeatherDisplay:10.37,2013-12-17 22:56:00,
2013-12-17 15:01:00,76.5,41.9,30.01,SSW,210,3.5,3.5,29,0.00,FEW,,0.00,169.0,WeatherDisplay:10.37,2013-12-17 23:01:00,
2013-12-17 15:06:00,76.6,41.0,30.01,SSW,210,3.5,3.5,28,0.00,SCT,,0.00,151.0,WeatherDisplay:10.37,2013-12-17 23:06:00,
2013-12-17 15:11:00,76.6,41.0,30.01,SSW,210,3.5,3.5,28,0.00,SCT,,0.00,120.0,WeatherDisplay:10.37,2013-12-17 23:11:00,
2013-12-17 15:16:00,76.7,42.0,30.01,SSW,210,3.5,3.5,29,0.00,SCT,,0.00,113.0,WeatherDisplay:10.37,2013-12-17 23:16:00,
2013-12-17 15:21:00,76.6,42.8,30.01,SSW,210,4.0,4.0,30,0.00,SCT,,0.00,107.0,WeatherDisplay:10.37,2013-12-17 23:21:00,
2013-12-17 15:26:00,76.5,42.7,30.01,SSW,210,3.5,3.5,30,0.00,SCT,,0.00,102.0,WeatherDisplay:10.37,2013-12-17 23:26:00,
2013-12-17 15:31:00,76.4,42.7,30.01,SSW,210,3.5,3.5,30,0.00,SCT,,0.00,91.0,WeatherDisplay:10.37,2013-12-17 23:31:00,
2013-12-17 15:36:00,76.4,43.5,30.00,SSW,210,2.3,2.3,31,0.00,SCT,,0.00,81.0,WeatherDisplay:10.37,2013-12-17 23:36:00,
2013-12-17 15:41:00,76.3,44.3,30.00,SSW,210,2.3,0.0,32,0.00,SCT,,0.00,70.0,WeatherDisplay:10.37,2013-12-17 23:41:00,
2013-12-17 15:46:00,76.2,45.0,30.01,SSW,210,1.2,0.0,33,0.00,SCT,,0.00,63.0,WeatherDisplay:10.37,2013-12-17 23:46:00,
2013-12-17 15:51:00,76.2,45.0,30.00,SSW,210,0.0,0.0,33,0.00,SCT,,0.00,60.0,WeatherDisplay:10.37,2013-12-17 23:51:00,
2013-12-17 15:56:00,76.0,44.8,30.00,SSW,210,1.2,1.2,33,0.00,SCT,,0.00,56.0,WeatherDisplay:10.37,2013-12-17 23:56:00,
2013-12-17 16:01:00,75.9,44.7,30.00,SSW,210,1.2,1.2,33,0.00,SCT,,0.00,53.0,WeatherDisplay:10.37,2013-12-18 00:01:00,
2013-12-17 16:06:00,75.8,44.6,30.00,SSW,210,1.2,1.2,33,0.00,SCT,,0.00,47.0,WeatherDisplay:10.37,2013-12-18 00:06:00,
2013-12-17 16:11:00,75.6,45.2,30.00,SSW,210,2.3,2.3,34,0.00,SCT,,0.00,39.0,WeatherDisplay:10.37,2013-12-18 00:11:00,
2013-12-17 16:16:00,75.3,45.0,30.00,SSW,210,1.2,0.0,34,0.00,SCT,,0.00,32.0,WeatherDisplay:10.37,2013-12-18 00:16:00,
2013-12-17 16:21:00,75.2,45.7,30.00,SSW,210,0.0,0.0,35,0.00,SCT,,0.00,25.0,WeatherDisplay:10.37,2013-12-18 00:21:00,
2013-12-17 16:26:00,74.9,45.4,30.00,SSW,210,0.0,0.0,35,0.00,SCT,,0.00,18.0,WeatherDisplay:10.37,2013-12-18 00:26:00,
2013-12-17 16:31:00,74.7,45.2,30.00,SSW,210,0.0,0.0,35,0.00,SCT,,0.00,11.0,WeatherDisplay:10.37,2013-12-18 00:31:00,
2013-12-17 16:36:00,74.4,45.7,30.00,SSW,210,0.0,0.0,36,0.00,SCT,,0.00,7.0,WeatherDisplay:10.37,2013-12-18 00:36:00,
2013-12-17 16:41:00,74.1,46.2,30.00,SSW,210,0.0,0.0,37,0.00,CLR,,0.00,0.0,WeatherDisplay:10.37,2013-12-18 00:41:00,
2013-12-17 16:46:00,73.7,45.8,30.00,SSW,210,0.0,0.0,37,0.00,CLR,,0.00,0.0,WeatherDisplay:10.37,2013-12-18 00:46:00,
2013-12-17 16:51:00,73.5,46.3,30.00,SSW,210,0.0,0.0,38,0.00,CLR,,0.00,0.0,WeatherDisplay:10.37,2013-12-18 00:51:00,
2013-12-17 16:56:00,73.1,46.0,30.00,SSW,210,0.0,0.0,38,0.00,CLR,,0.00,0.0,WeatherDisplay:10.37,2013-12-18 00:56:00,
2013-12-17 17:01:00,72.7,46.3,30.00,SSW,210,0.0,0.0,39,0.00,CLR,,0.00,0.0,WeatherDisplay:10.37,2013-12-18 01:01:00,
2013-12-17 17:06:00,72.4,46.7,30.00,SSW,210,0.0,0.0,40,0.00,CLR,,0.00,0.0,WeatherDisplay:10.37,2013-12-18 01:06:00,
2013-12-17 17:11:00,72.0,47.0,30.00,SSW,210,0.0,0.0,41,0.00,CLR,,0.00,0.0,WeatherDisplay:10.37,2013-12-18 01:11:00,
2013-12-17 17:16:00,71.6,46.6,30.00,SSW,210,0.0,0.0,41,0.00,CLR,,0.00,0.0,WeatherDisplay:10.37,2013-12-18 01:16:00,
2013-12-17 17:21:00,71.3,46.4,30.00,SSW,210,0.0,0.0,41,0.00,CLR,,0.00,0.0,WeatherDisplay:10.37,2013-12-18 01:21:00,
2013-12-17 17:26:00,71.0,46.7,30.00,SSW,210,1.2,1.2,42,0.00,CLR,,0.00,0.0,WeatherDisplay:10.37,2013-12-18 01:26:00,
2013-12-17 17:31:00,70.8,46.6,30.00,SSW,210,0.0,0.0,42,0.00,CLR,,0.00,0.0,WeatherDisplay:10.37,2013-12-18 01:31:00,
2013-12-17 17:36:00,70.5,46.3,30.00,SSW,210,0.0,0.0,42,0.00,CLR,,0.00,0.0,WeatherDisplay:10.37,2013-12-18 01:36:00,
2013-12-17 17:41:00,70.1,47.2,30.00,SSW,210,1.2,1.2,44,0.00,CLR,,0.00,0.0,WeatherDisplay:10.37,2013-12-18 01:41:00,
2013-12-17 17:46:00,69.5,47.2,30.00,SSW,210,0.0,0.0,45,0.00,CLR,,0.00,0.0,WeatherDisplay:10.37,2013-12-18 01:46:00,
2013-12-17 17:51:00,69.2,46.4,30.00,SSW,210,1.2,1.2,44,0.00,CLR,,0.00,0.0,WeatherDisplay:10.37,2013-12-18 01:51:00,
2013-12-17 17:56:00,69.2,46.9,30.00,SSW,210,1.2,0.0,45,0.00,CLR,,0.00,0.0,WeatherDisplay:10.37,2013-12-18 01:56:00,
2013-12-17 18:01:00,69.1,46.9,30.00,SSW,210,1.2,1.2,45,0.00,CLR,,0.00,0.0,WeatherDisplay:10.37,2013-12-18 02:01:00,
2013-12-17 18:06:00,69.1,46.9,29.99,SSW,210,0.0,0.0,45,0.00,CLR,,0.00,0.0,WeatherDisplay:10.37,2013-12-18 02:06:00,
2013-12-17 18:11:00,69.0,46.8,29.99,SSW,210,1.2,0.0,45,0.00,CLR,,0.00,0.0,WeatherDisplay:10.37,2013-12-18 02:11:00,
2013-12-17 18:16:00,68.8,47.2,29.99,SSW,210,0.0,0.0,46,0.00,CLR,,0.00,0.0,WeatherDisplay:10.37,2013-12-18 02:16:00,
2013-12-17 18:21:00,68.6,47.6,29.99,SSW,210,0.0,0.0,47,0.00,CLR,,0.00,0.0,WeatherDisplay:10.37,2013-12-18 02:21:00,
2013-12-17 18:26:00,68.3,47.3,30.00,SSW,210,0.0,0.0,47,0.00,CLR,,0.00,0.0,WeatherDisplay:10.37,2013-12-18 02:26:00,
2013-12-17 18:31:00,68.1,47.1,29.99,SSW,210,0.0,0.0,47,0.00,CLR,,0.00,0.0,WeatherDisplay:10.37,2013-12-18 02:31:00,
2013-12-17 18:36:00,67.8,47.4,29.99,SSW,210,1.0,0.0,48,0.00,CLR,,0.00,0.0,WeatherDisplay:10.37,2013-12-18 02:36:00,
2013-12-17 18:41:00,67.6,46.6,30.00,SSW,210,1.2,0.0,47,0.00,CLR,,0.00,0.0,WeatherDisplay:10.37,2013-12-18 02:41:00,
2013-12-17 18:46:00,67.4,47.0,29.99,SSW,210,0.0,0.0,48,0.00,CLR,,0.00,0.0,WeatherDisplay:10.37,2013-12-18 02:46:00,
2013-12-17 18:51:00,67.2,46.8,30.00,SSW,210,0.0,0.0,48,0.00,CLR,,0.00,0.0,WeatherDisplay:10.37,2013-12-18 02:51:00,
2013-12-17 18:56:00,67.1,47.3,30.00,SSW,210,1.2,0.0,49,0.00,CLR,,0.00,0.0,WeatherDisplay:10.37,2013-12-18 02:56:00,
2013-12-17 19:01:00,67.1,46.7,30.00,SSW,210,3.5,3.5,48,0.00,CLR,,0.00,0.0,WeatherDisplay:10.37,2013-12-18 03:01:00,
2013-12-17 19:06:00,67.6,47.2,30.00,SSW,210,3.5,3.5,48,0.00,CLR,,0.00,0.0,WeatherDisplay:10.37,2013-12-18 03:06:00,
2013-12-17 19:11:00,67.9,48.0,30.00,SSW,210,3.5,3.5,49,0.00,CLR,,0.00,0.0,WeatherDisplay:10.37,2013-12-18 03:11:00,
2013-12-17 19:16:00,67.9,48.0,30.00,SSW,210,1.2,1.2,49,0.00,CLR,,0.00,0.0,WeatherDisplay:10.37,2013-12-18 03:16:00,
2013-12-17 19:21:00,67.9,48.6,30.00,SSW,210,1.2,0.0,50,0.00,CLR,,0.00,0.0,WeatherDisplay:10.37,2013-12-18 03:21:00,
2013-12-17 19:26:00,67.8,48.5,30.00,SSW,210,2.3,2.3,50,0.00,CLR,,0.00,0.0,WeatherDisplay:10.37,2013-12-18 03:26:00,
2013-12-17 19:31:00,67.8,49.0,30.00,SSW,210,2.3,0.0,51,0.00,CLR,,0.00,0.0,WeatherDisplay:10.37,2013-12-18 03:31:00,
2013-12-17 19:36:00,67.6,48.3,30.00,SSW,210,1.2,1.2,50,0.00,CLR,,0.00,0.0,WeatherDisplay:10.37,2013-12-18 03:36:00,
2013-12-17 19:41:00,67.4,48.1,30.00,SSW,210,1.2,0.0,50,0.00,CLR,,0.00,0.0,WeatherDisplay:10.37,2013-12-18 03:41:00,
2013-12-17 19:46:00,67.1,48.4,30.00,SSW,210,1.2,1.2,51,0.00,CLR,,0.00,0.0,WeatherDisplay:10.37,2013-12-18 03:46:00,
2013-12-17 19:51:00,66.8,48.1,30.00,SSW,210,1.2,1.2,51,0.00,CLR,,0.00,0.0,WeatherDisplay:10.37,2013-12-18 03:51:00,
2013-12-17 19:56:00,66.6,48.4,30.00,SSW,210,1.2,0.0,52,0.00,CLR,,0.00,0.0,WeatherDisplay:10.37,2013-12-18 03:56:00,
2013-12-17 20:01:00,66.3,48.1,30.01,SSW,210,0.0,0.0,52,0.00,CLR,,0.00,0.0,WeatherDisplay:10.37,2013-12-18 04:01:00,
2013-12-17 20:06:00,66.1,47.4,30.01,SSW,210,1.2,1.2,51,0.00,CLR,,0.00,0.0,WeatherDisplay:10.37,2013-12-18 04:06:00,
2013-12-17 20:11:00,66.0,47.3,30.01,SSW,210,0.0,0.0,51,0.00,CLR,,0.00,0.0,WeatherDisplay:10.37,2013-12-18 04:11:00,
2013-12-17 20:16:00,65.8,47.2,30.01,SSW,210,0.0,0.0,51,0.00,CLR,,0.00,0.0,WeatherDisplay:10.37,2013-12-18 04:16:00,
2013-12-17 20:21:00,65.6,47.0,30.01,SSW,210,0.0,0.0,51,0.00,CLR,,0.00,0.0,WeatherDisplay:10.37,2013-12-18 04:21:00,
2013-12-17 20:26:00,65.5,46.9,30.01,SSW,210,0.0,0.0,51,0.00,CLR,,0.00,0.0,WeatherDisplay:10.37,2013-12-18 04:26:00,
2013-12-17 20:31:00,65.3,46.7,30.01,SSW,210,0.0,0.0,51,0.00,CLR,,0.00,0.0,WeatherDisplay:10.37,2013-12-18 04:31:00,
2013-12-17 20:37:00,65.3,46.7,30.01,SSW,210,1.2,1.2,51,0.00,CLR,,0.00,0.0,WeatherDisplay:10.37,2013-12-18 04:37:00,
2013-12-17 20:42:00,65.4,46.8,30.01,SSW,210,1.2,1.2,51,0.00,CLR,,0.00,0.0,WeatherDisplay:10.37,2013-12-18 04:42:00,
2013-12-17 20:47:00,65.5,46.4,30.01,SSW,210,1.2,1.2,50,0.00,CLR,,0.00,0.0,WeatherDisplay:10.37,2013-12-18 04:47:00,
2013-12-17 20:52:00,65.5,46.4,30.01,SSW,210,0.0,0.0,50,0.00,CLR,,0.00,0.0,WeatherDisplay:10.37,2013-12-18 04:52:00,
2013-12-17 20:57:00,65.6,46.5,30.01,SSW,210,1.2,0.0,50,0.00,CLR,,0.00,0.0,WeatherDisplay:10.37,2013-12-18 04:57:00,
2013-12-17 21:01:00,65.7,46.5,30.01,SSW,210,0.0,0.0,50,0.00,CLR,,0.00,0.0,WeatherDisplay:10.37,2013-12-18 05:01:00,
2013-12-17 21:02:00,65.7,46.5,30.01,SSW,210,0.0,0.0,50,0.00,CLR,,0.00,0.0,WeatherDisplay:10.37,2013-12-18 05:02:00,
2013-12-17 21:03:00,65.7,46.5,30.01,SSW,210,0.0,0.0,50,0.00,CLR,,0.00,0.0,WeatherDisplay:10.37,2013-12-18 05:03:00,
2013-12-17 21:04:00,65.7,46.5,30.01,SSW,210,0.0,0.0,50,0.00,CLR,,0.00,0.0,WeatherDisplay:10.37,2013-12-18 05:04:00,
2013-12-17 21:09:00,65.6,45.9,30.01,SSW,210,0.0,0.0,49,0.00,CLR,,0.00,0.0,WeatherDisplay:10.37,2013-12-18 05:09:00,
2013-12-17 21:14:00,65.6,46.5,30.01,SSW,210,0.0,0.0,50,0.00,CLR,,0.00,0.0,WeatherDisplay:10.37,2013-12-18 05:14:00,
2013-12-17 21:19:00,65.5,46.9,30.01,SSW,210,0.0,0.0,51,0.00,CLR,,0.00,0.0,WeatherDisplay:10.37,2013-12-18 05:19:00,
2013-12-17 21:24:00,65.3,46.7,30.01,SSW,210,0.0,0.0,51,0.00,CLR,,0.00,0.0,WeatherDisplay:10.37,2013-12-18 05:24:00,
2013-12-17 21:29:00,65.2,47.1,30.01,SSW,210,0.0,0.0,52,0.00,CLR,,0.00,0.0,WeatherDisplay:10.37,2013-12-18 05:29:00,
2013-12-17 21:34:00,65.0,46.9,30.01,SSW,210,1.2,0.0,52,0.00,CLR,,0.00,0.0,WeatherDisplay:10.37,2013-12-18 05:34:00,
2013-12-17 21:39:00,65.0,46.9,30.01,SSW,210,0.0,0.0,52,0.00,CLR,,0.00,0.0,WeatherDisplay:10.37,2013-12-18 05:39:00,
2013-12-17 21:44:00,65.0,46.9,30.01,SSW,210,0.0,0.0,52,0.00,CLR,,0.00,0.0,WeatherDisplay:10.37,2013-12-18 05:44:00,
2013-12-17 21:49:00,65.0,47.4,30.01,SSW,210,1.2,1.2,53,0.00,CLR,,0.00,0.0,WeatherDisplay:10.37,2013-12-18 05:49:00,
2013-12-17 21:54:00,65.1,48.0,30.01,SSW,210,2.3,2.3,54,0.00,CLR,,0.00,0.0,WeatherDisplay:10.37,2013-12-18 05:54:00,
2013-12-17 21:59:00,65.0,47.9,30.01,SSW,210,2.3,2.3,54,0.00,CLR,,0.00,0.0,WeatherDisplay:10.37,2013-12-18 05:59:00,
2013-12-17 22:04:00,64.9,48.3,30.01,SSW,210,1.2,1.2,55,0.00,CLR,,0.00,0.0,WeatherDisplay:10.37,2013-12-18 06:04:00,
2013-12-17 22:09:00,64.8,48.2,30.01,SSW,210,3.5,3.5,55,0.00,CLR,,0.00,0.0,WeatherDisplay:10.37,2013-12-18 06:09:00,
2013-12-17 22:14:00,64.9,48.3,30.01,SSW,210,4.0,4.0,55,0.00,CLR,,0.00,0.0,WeatherDisplay:10.37,2013-12-18 06:14:00,
2013-12-17 22:19:00,64.9,48.3,30.01,SSW,210,2.3,2.3,55,0.00,CLR,,0.00,0.0,WeatherDisplay:10.37,2013-12-18 06:19:00,
2013-12-17 22:24:00,64.8,48.7,30.01,SSW,210,2.3,2.3,56,0.00,CLR,,0.00,0.0,WeatherDisplay:10.37,2013-12-18 06:24:00,
2013-12-17 22:29:00,64.7,48.6,30.01,SSW,210,1.0,1.0,56,0.00,CLR,,0.00,0.0,WeatherDisplay:10.37,2013-12-18 06:29:00,
2013-12-17 22:34:00,64.5,49.4,30.01,SSW,210,2.3,2.3,58,0.00,CLR,,0.00,0.0,WeatherDisplay:10.37,2013-12-18 06:34:00,
2013-12-17 22:39:00,64.4,49.8,30.01,SSW,210,2.3,2.3,59,0.00,CLR,,0.00,0.0,WeatherDisplay:10.37,2013-12-18 06:39:00,
2013-12-17 22:44:00,64.2,50.0,30.01,SSW,210,1.2,1.2,60,0.00,CLR,,0.00,0.0,WeatherDisplay:10.37,2013-12-18 06:44:00,
2013-12-17 22:49:00,64.1,50.8,30.01,SSW,210,3.5,3.5,62,0.00,CLR,,0.00,0.0,WeatherDisplay:10.37,2013-12-18 06:49:00,
2013-12-17 22:54:00,64.0,50.3,30.01,SSW,210,3.5,3.5,61,0.00,CLR,,0.00,0.0,WeatherDisplay:10.37,2013-12-18 06:54:00,
2013-12-17 22:59:00,63.9,49.7,30.01,SSW,210,3.5,3.5,60,0.00,CLR,,0.00,0.0,WeatherDisplay:10.37,2013-12-18 06:59:00,
2013-12-17 23:04:00,63.9,49.7,30.01,SSW,210,2.3,2.3,60,0.00,CLR,,0.00,0.0,WeatherDisplay:10.37,2013-12-18 07:04:00,
2013-12-17 23:09:00,63.8,49.6,30.01,SSW,210,3.5,3.5,60,0.00,CLR,,0.00,0.0,WeatherDisplay:10.37,2013-12-18 07:09:00,
2013-12-17 23:14:00,63.8,49.6,30.01,SSW,210,1.2,1.2,60,0.00,CLR,,0.00,0.0,WeatherDisplay:10.37,2013-12-18 07:14:00,
2013-12-17 23:19:00,63.8,50.1,30.01,SSW,210,0.0,0.0,61,0.00,CLR,,0.00,0.0,WeatherDisplay:10.37,2013-12-18 07:19:00,
2013-12-17 23:24:00,63.7,50.0,30.00,SSW,210,0.0,0.0,61,0.00,CLR,,0.00,0.0,WeatherDisplay:10.37,2013-12-18 07:24:00,
2013-12-17 23:29:00,63.5,49.8,30.00,SSW,210,1.2,1.2,61,0.00,CLR,,0.00,0.0,WeatherDisplay:10.37,2013-12-18 07:29:00,
2013-12-17 23:34:00,63.2,50.0,30.00,SSW,210,2.3,2.3,62,0.00,CLR,,0.00,0.0,WeatherDisplay:10.37,2013-12-18 07:34:00,
2013-12-17 23:39:00,63.0,50.2,30.00,SSW,210,3.5,3.5,63,0.00,CLR,,0.00,0.0,WeatherDisplay:10.37,2013-12-18 07:39:00,
2013-12-17 23:44:00,62.8,50.4,30.00,SSW,210,2.3,2.3,64,0.00,CLR,,0.00,0.0,WeatherDisplay:10.37,2013-12-18 07:44:00,
2013-12-17 23:49:00,62.7,50.8,29.99,SSW,210,1.2,1.2,65,0.00,CLR,,0.00,0.0,WeatherDisplay:10.37,2013-12-18 07:49:00,
2013-12-17 23:54:00,62.6,50.7,30.00,SSW,210,0.0,0.0,65,0.00,CLR,,0.00,0.0,WeatherDisplay:10.37,2013-12-18 07:54:00,
2013-12-17 23:59:00,62.5,51.0,29.99,SSW,210,1.2,1.2,66,0.00,CLR,,0.00,0.0,WeatherDisplay:10.37,2013-12-18 07:59:00,